Queen Charlotte Strait: Past 24 Hour Conditions

 

Race Rocks Lightstation

01:00 AM PDT 25 October 2014
This table is a summary of hourly weather conditions for the past 24 hours.
Date / Time
(PDT)
Wind(knots) Conditions Visibility(km) Pressure(kPa) Air tempC) Relative humidity(%) Dew pointC)
25 October 2014
1:00 NNE 22 N/A N/A 100.6 10 94 9
0:00 NNE 24 N/A N/A 100.8 11 90 9
24 October 2014
23:00 NE 22 N/A N/A 100.9 11 84 8
22:00 NE 14 N/A N/A 101.0 11 81 8
21:00 ENE 11 N/A N/A 101.1 11 81 8
20:00 ENE 10 N/A N/A 101.1 11 82 8
19:00 NNE 11 N/A N/A 101.2 11 80 8
18:00 NNE 15 N/A N/A 101.2 11 80 8
17:00 NNE 18 N/A N/A 101.3 11 80 8
16:00 NNE 16 N/A N/A 101.4 11 79 8
15:00 NNE 16 N/A N/A 101.5 11 81 8
14:00 NNE 15 N/A N/A 101.6 11 80 8
13:00 NE 16 N/A N/A 101.6 11 81 8
12:00 NE 13 N/A N/A 101.7 11 89 9
11:00 NE 13 N/A N/A 101.7 10 87 8
10:00 NNE 15 N/A N/A 101.7 10 88 8
9:00 N 16 N/A N/A 101.7 10 87 8
8:00 NNE 16 N/A N/A 101.7 10 84 8
7:00 NNE 17 N/A N/A 101.6 10 88 8
6:00 NNE 14 N/A N/A 101.6 10 89 9
5:00 NNE 14 N/A N/A 101.6 10 90 9
4:00 NNE 13 N/A N/A 101.6 10 90 9
3:00 N 10 N/A N/A 101.6 10 91 9
2:00 NNE 8 N/A N/A 101.6 10 91 9
1:00 N 12 N/A N/A 101.5 10 92 9
 
Map of Pacific - South Coast marine weather areas Tsawwassen Ferry Terminal South Nomad - 46036 Sentry Shoal - 46131 South Brooks - 46132 Halibut Bank - 46146 South Moresby - 46147 South Hecate Strait - 46185 West Sea Otter - 46204 La Perouse Bank - 46206 East Dellwood - 46207 Discovery Island Esquimalt Harbour Kelp Reefs Malahat Race Rocks Lightstation Saturna Island Sheringham Point University of Victoria Victoria Gonzales Victoria Int'l Airport Ballenas Islands Campbell River Airport Comox Airport Entrance Island Fanny Island Nanaimo Airport Port Hardy Airport Sisters Islets Estevan Point Sartine Island Solander Island Tofino Airport Grief Point Powell River Airport Sechelt Cape St.James Bella Bella Airport Bella Coola Airport Cathedral Point Herbert Island Point Atkinson Sand Heads Lightstation Vancouver Harbour Vancouver Int'l Airport West Vancouver Port Alberni Howe Sound - Pam Rocks Squamish Airport